Flag for Seychelles Weather past 2 weeks in Victoria, Seychelles

Now
82 °F

Passing clouds.


Feels Like: 88 °F
Forecast: 75 / 79 °F
Wind: 12 mph from North

Location: National Airport

Current Time: Jan 29, 2015 at 11:01:26 AM

Latest Report: Jan 29, 2015 at 9:00 AM


Visibility: N/A

Pressure: 29.86 "Hg

Humidity: 74%

Dew point: 73 °F

Location of VictoriaLocation

Historic Weather in Victoria — Graph

°F

Victoria temperature yesterday

Maximum temperature yesterday: 84 °F (at 10:00 AM)
Minimum temperature yesterday: 79 °F (at 12:00 AM)
Average temperature yesterday: 81 °F

Past Weeks' High & Low Weather Summary

 TemperatureHumidityPressure
High88 °F (Jan 20, 12:00 PM)94% (Jan 22, 6:00 PM)30.01 "Hg (Jan 22, 6:00 PM)
Low73 °F (Jan 26, 8:00 AM)62% (Jan 24, 12:00 PM)29.77 "Hg (Jan 16, 4:00 PM)
Average82 °F79%29.88 "Hg
* Reported Jan 14 9:00 AM — Jan 29 9:00 AM, Victoria, Weather by CustomWeather, © 2014

Note: Actual official high and low records may vary slightly from our data, if they occured in-between our weather recording intervals... More about our weather records

Advertising

Victoria weather history for previous 24 hours

 ConditionsComfort  
Time TempWeatherWind HumidityBarometerVisibility
9:00 AM
Jan 29
82 °FPassing clouds.12 mph74%29.86 "HgN/A
8:00 AM82 °FScattered clouds.9 mph74%29.86 "HgN/A
7:00 AM79 °FScattered clouds.9 mph79%29.83 "HgN/A
6:00 AM77 °FPassing clouds.8 mph83%29.80 "HgN/A
5:00 AM77 °FPassing clouds.6 mph83%29.80 "HgN/A
4:00 AM77 °FPassing clouds.8 mph79%29.80 "HgN/A
3:00 AM77 °FPassing clouds.8 mph79%29.80 "HgN/A
12:00 AM79 °FPassing clouds.6 mph79%29.89 "HgN/A
11:00 PM
Jan 28
79 °FPassing clouds.7 mph79%29.89 "HgN/A
10:00 PM79 °FPassing clouds.6 mph79%29.89 "HgN/A
9:00 PM79 °FPassing clouds.6 mph79%29.89 "HgN/A
8:00 PM79 °FPassing clouds.7 mph79%29.86 "HgN/A
7:00 PM81 °FPassing clouds.6 mph74%29.86 "HgN/A
6:00 PM82 °FPassing clouds.13 mph70%29.83 "HgN/A
5:00 PM82 °FPassing clouds.10 mph70%29.80 "HgN/A
4:00 PM84 °FPassing clouds.14 mph70%29.80 "HgN/A
3:00 PM82 °FPassing clouds.13 mph70%29.80 "HgN/A
2:00 PM82 °FPassing clouds.13 mph70%29.83 "HgN/A
1:00 PM84 °FScattered clouds.13 mph66%29.83 "HgN/A
12:00 PM84 °FPassing clouds.13 mph66%29.86 "HgN/A
11:00 AM84 °FScattered clouds.12 mph66%29.89 "HgN/A
Weather by CustomWeather, © 2014

See weather overviewHow to use our weather pages